Roros Lufthavn, Norway

5:22 PM CET on December 12, 2019 (GMT +0100)
Roros

Weather History for ENRO - October, 2019

Change the Weather History Date:

Thursday, October 3, 2019

  Actual Average Record
Temperature  
Mean Temperature 34 °F -  
Max Temperature 35 °F 46 °F 55 °F (2001)
Min Temperature 32 °F 34 °F 19 °F (2016)
Degree Days  
Heating Degree Days 32    
Moisture  
Dew Point 31 °F    
Average Humidity 95    
Maximum Humidity 100    
Minimum Humidity 87    
Precipitation  
Precipitation 0.00 in - - ()
Sea Level Pressure  
Sea Level Pressure 29.96 in    
Wind  
Wind Speed 6 mph ()    
Max Wind Speed 12 mph    
Max Gust Speed -    
Visibility 5.4 miles    
Events Rain , Snow    
Averages and records for this station are not official NWS values.
T = Trace of Precipitation, MM = Missing Value Source: Averaged Metar Reports

Daily Weather History Graph

Daily Weather History Graph

Search for Another Location

Airport or City:

Astronomy

Oct. 03, 2019 Rise Set
Actual Time 7:26 AM CEST 6:39 PM CEST
Civil Twilight 6:41 AM CEST 7:24 PM CEST
Nautical Twilight 5:48 AM CEST 8:17 PM CEST
Astronomical Twilight 4:51 AM CEST 9:13 PM CEST
Moon 2:19 PM CEST (10/3) 8:23 PM CEST (10/3)
Length of Visible Light 12h 43m
Length of Day
11h 13m
Waxing Crescent, 27% of the Moon is Illuminated
Oct 3
Waxing Crescent
Oct 5
First Quarter
Oct 13
Full
Oct 21
Last Quarter
Oct 28
New

Hourly Weather History & Observations

Time (CEST) Temp. Windchill Dew Point Humidity Pressure Visibility Wind Dir Wind Speed Gust Speed Precip Events Conditions
12:20 AM 35.6 °F 32.8 °F 35.6 °F 100% 29.86 in 5.0 mi SE 3.5 mph - N/A Rain Rain
12:50 AM 35.6 °F 30.7 °F 35.6 °F 100% 29.86 in 4.3 mi ESE 5.8 mph - N/A Rain Light Rain
1:20 AM 35.6 °F 29.9 °F 35.6 °F 100% 29.86 in 5.6 mi ESE 6.9 mph - N/A Rain Light Rain
1:50 AM 33.8 °F 26.4 °F 33.8 °F 100% 29.89 in 3.1 mi East 9.2 mph - N/A Rain , Snow Light Rain
2:20 AM 33.8 °F 27.0 °F 33.8 °F 100% 29.89 in - East 8.1 mph - N/A Rain Light Rain
2:50 AM 33.8 °F 28.6 °F 33.8 °F 100% 29.89 in - East 5.8 mph - N/A Snow Light Snow
3:20 AM 32.0 °F 28.7 °F 32.0 °F 100% 29.89 in 4.3 mi NNE 3.5 mph - N/A Snow Light Snow
3:50 AM 32.0 °F 27.5 °F 32.0 °F 100% 29.89 in 2.5 mi NNW 4.6 mph - N/A Snow Light Snow
4:20 AM 32.0 °F 27.5 °F 32.0 °F 100% 29.89 in 1.2 mi NW 4.6 mph - N/A Snow Light Snow
4:50 AM 32.0 °F 26.4 °F 32.0 °F 100% 29.89 in 1.2 mi North 5.8 mph - N/A Snow Light Snow
5:20 AM 32.0 °F 27.5 °F 32.0 °F 100% 29.89 in 2.2 mi East 4.6 mph - N/A Snow Light Snow
5:50 AM 32.0 °F 26.4 °F 32.0 °F 100% 29.89 in 1.2 mi East 5.8 mph - N/A Snow Light Snow
6:20 AM 32.0 °F 24.2 °F 32.0 °F 100% 29.92 in 6.2 mi East 9.2 mph - N/A Snow Light Snow
6:50 AM 32.0 °F 23.6 °F 32.0 °F 100% 29.92 in 3.7 mi East 10.4 mph - N/A Snow Light Snow
8:20 AM 32.0 °F 23.0 °F 30.2 °F 93% 29.95 in 6.2 mi East 11.5 mph - N/A Snow Light Snow Showers
8:50 AM 32.0 °F 24.2 °F 30.2 °F 93% 29.95 in 6.2 mi ESE 9.2 mph - N/A Snow Light Snow Showers
9:20 AM 32.0 °F 25.6 °F 30.2 °F 93% 29.95 in 6.2 mi East 6.9 mph - N/A Snow Light Snow Showers
9:50 AM 32.0 °F 27.5 °F 30.2 °F 93% 29.95 in 6.2 mi NE 4.6 mph - N/A   Mostly Cloudy
10:20 AM 32.0 °F 27.5 °F 30.2 °F 93% 29.98 in 6.2 mi East 4.6 mph - N/A   Mostly Cloudy
10:50 AM 32.0 °F 26.4 °F 30.2 °F 93% 29.98 in 6.2 mi ESE 5.8 mph - N/A   Mostly Cloudy
11:20 AM 32.0 °F 26.4 °F 30.2 °F 93% 29.98 in 6.2 mi ESE 5.8 mph - N/A   Mostly Cloudy
11:50 AM 32.0 °F 26.4 °F 30.2 °F 93% 29.98 in 6.2 mi ESE 5.8 mph - N/A   Mostly Cloudy
12:20 PM 33.8 °F 25.8 °F 32.0 °F 93% 29.98 in 6.2 mi ESE 10.4 mph - N/A   Mostly Cloudy
12:50 PM 33.8 °F 26.4 °F 30.2 °F 87% 29.98 in 6.2 mi ESE 9.2 mph - N/A   Mostly Cloudy
1:20 PM 33.8 °F 27.7 °F 32.0 °F 93% 29.98 in 6.2 mi ESE 6.9 mph - N/A   Mostly Cloudy
2:20 PM 33.8 °F 28.6 °F 32.0 °F 93% 30.01 in 5.6 mi ESE 5.8 mph - N/A Snow Light Snow Showers
2:50 PM 33.8 °F 26.4 °F 32.0 °F 93% 30.01 in 6.2 mi ESE 9.2 mph - N/A   Mostly Cloudy
3:50 PM 33.8 °F 25.8 °F 32.0 °F 93% 30.01 in 6.2 mi ESE 10.4 mph - N/A Rain Light Rain Showers
4:20 PM 33.8 °F 25.8 °F 32.0 °F 93% 30.01 in 6.2 mi ESE 10.4 mph - N/A   Mostly Cloudy
4:50 PM 33.8 °F 27.0 °F 32.0 °F 93% 30.01 in 6.2 mi SE 8.1 mph - N/A   Mostly Cloudy
5:20 PM 33.8 °F 27.0 °F 32.0 °F 93% 30.01 in 6.2 mi ESE 8.1 mph - N/A   Mostly Cloudy
5:50 PM 33.8 °F 27.7 °F 30.2 °F 87% 30.01 in 6.2 mi ESE 6.9 mph - N/A   Mostly Cloudy
6:20 PM 33.8 °F 26.4 °F 32.0 °F 93% 30.01 in 6.2 mi ESE 9.2 mph - N/A Rain , Snow Light Rain
6:50 PM 32.0 °F 24.8 °F 32.0 °F 100% 30.01 in 6.2 mi ESE 8.1 mph - N/A Snow Light Snow
7:20 PM 32.0 °F 26.4 °F 32.0 °F 100% 30.01 in 6.2 mi ESE 5.8 mph - N/A Snow Light Snow
7:50 PM 32.0 °F 25.6 °F 30.2 °F 93% 30.01 in 6.2 mi East 6.9 mph - N/A Rain , Snow Light Rain
8:20 PM 32.0 °F 23.6 °F 30.2 °F 93% 30.01 in 6.2 mi East 10.4 mph - N/A Snow Light Snow
8:50 PM 32.0 °F 24.2 °F 30.2 °F 93% 30.01 in 6.2 mi ESE 9.2 mph - N/A Snow Light Snow
9:20 PM 32.0 °F 24.8 °F 30.2 °F 93% 30.01 in 6.2 mi ESE 8.1 mph - N/A Snow Light Snow
9:50 PM 32.0 °F 24.8 °F 30.2 °F 93% 30.04 in 6.2 mi East 8.1 mph - N/A Snow Light Snow
10:20 PM 32.0 °F 25.6 °F 28.4 °F 87% 30.04 in 6.2 mi East 6.9 mph - N/A Snow Light Snow
10:50 PM 32.0 °F 28.7 °F 28.4 °F 87% 30.01 in 6.2 mi Variable 3.5 mph - N/A Rain , Snow Light Rain
11:20 PM 32.0 °F 26.4 °F 28.4 °F 87% 30.01 in 6.2 mi ENE 5.8 mph - N/A Snow Light Snow
11:50 PM 32.0 °F 26.4 °F 28.4 °F 87% 30.04 in 6.2 mi NE 5.8 mph - N/A Snow Light Snow